User: anonymous   Login
Location: Unspecified
(0.0000°N, 0.0000°E)
Time: 02:05:28
(UTC+00:00)
Language:

STARLINK-1595 - Orbit

View from above orbital plane
View from above orbital plane
View from above satellite
View from above satellite

Ground track
Ground track

The orbit is defined by the following mean orbital elements,

1 46159U          26145.64779296 +.00000000 +00000-0 +75618-3 0 00006
2 46159  53.0435 282.0651 0002238 357.0540   3.0463 15.69462618    04
Epoch (UTC): 25 May 2026 15:32:49
Eccentricity: 0.0002238
inclination: 53.0435°
perigee height: 359 km
apogee height: 362 km
right ascension of ascending node: 282.0651°
argument of perigee: 357.0540°
revolutions per day: 15.69462618
mean anomaly at epoch: 3.0463°

The dashed part of the orbit path shows where the satellite is in the earth's shadow,  

DLR